2022/12/23 00:00:00, 5.2,-7.0
2022/12/23 00:10:00, 5.2,-7.0
2022/12/23 00:20:00, 5.0,-7.4
2022/12/23 00:30:00, 5.0,-7.3
2022/12/23 00:40:00, 4.9,-7.5
2022/12/23 00:50:00, 4.9,-7.7
2022/12/23 01:00:00, 4.9,-7.5
2022/12/23 01:10:00, 4.8,-7.8
2022/12/23 01:20:00, 4.8,-7.6
2022/12/23 01:30:00, 5.0,-7.8
2022/12/23 01:40:00, 5.3,-7.5
2022/12/23 01:50:00, 5.6,-7.8
2022/12/23 02:00:00, 6.0,-7.8
2022/12/23 02:10:00, 6.1,-7.6
2022/12/23 02:20:00, 6.9,-7.7
2022/12/23 02:30:00, 7.5,-7.5
2022/12/23 02:40:00, 7.9,-7.4
2022/12/23 02:50:00, 8.8,-7.4
2022/12/23 03:00:00, 9.7,-7.4
2022/12/23 03:10:00, 9.8,-7.2
2022/12/23 03:20:00, 9.7,-7.4
2022/12/23 03:30:00, 9.1,-7.4
2022/12/23 03:40:00, 8.8,-7.5
2022/12/23 03:50:00, 9.1,-7.3
2022/12/23 04:00:00, 9.0,-7.8
2022/12/23 04:10:00, 8.2,-7.7
2022/12/23 04:20:00, 7.9,-7.7
2022/12/23 04:30:00, 8.4,-7.8
2022/12/23 04:40:00, 8.6,-7.8
2022/12/23 04:50:00, 8.4,-7.7
2022/12/23 05:00:00, 8.2,-7.7
2022/12/23 05:10:00, 8.1,-7.7
2022/12/23 05:20:00, 8.5,-7.5
2022/12/23 05:30:00, 9.3,-7.7
2022/12/23 05:40:00, 9.6,-7.7
2022/12/23 05:50:00, 9.6,-7.8
2022/12/23 06:00:00, 9.7,-7.7
2022/12/23 06:10:00, 9.7,-7.7
2022/12/23 06:20:00, 9.6,-7.9
2022/12/23 06:30:00, 9.5,-8.0
2022/12/23 06:40:00, 9.4,-7.6
2022/12/23 06:50:00, 9.4,-7.7
2022/12/23 07:00:00, 9.4,-7.6
2022/12/23 07:10:00, 9.4,-7.6
2022/12/23 07:20:00, 9.4,-7.6
2022/12/23 07:30:00, 9.3,-7.6
2022/12/23 07:40:00, 9.3,-7.7
2022/12/23 07:50:00, 9.3,-7.5
2022/12/23 08:00:00, 9.4,-7.5
2022/12/23 08:10:00, 9.3,-7.6
2022/12/23 08:20:00, 9.4,-7.5
2022/12/23 08:30:00, 9.9,-7.7
2022/12/23 08:40:00, 9.9,-7.4
2022/12/23 08:50:00,10.3,-7.4
2022/12/23 09:00:00,10.7,-6.7
2022/12/23 09:10:00,11.2,-6.5
2022/12/23 09:20:00,11.1,-6.7
2022/12/23 09:30:00,11.0,-7.0
2022/12/23 09:40:00,11.3,-6.7
2022/12/23 09:50:00,11.7,-6.6
2022/12/23 10:00:00,11.4,-7.1
2022/12/23 10:10:00,10.9,-6.7
2022/12/23 10:20:00,10.7,-6.7
2022/12/23 10:30:00,10.8,-6.7
2022/12/23 10:40:00,10.7,-6.6
2022/12/23 10:50:00,11.0,-6.6
2022/12/23 11:00:00,11.1,-6.3
2022/12/23 11:10:00,11.2,-6.2
2022/12/23 11:20:00,11.3,-6.6
2022/12/23 11:30:00,11.2,-6.6
2022/12/23 11:40:00,11.0,-6.3
2022/12/23 11:50:00,10.8,-6.3
2022/12/23 12:00:00,10.8,-6.7
2022/12/23 12:10:00,10.8,-5.8
2022/12/23 12:20:00,10.9,-4.9
2022/12/23 12:30:00,11.0,-5.3
2022/12/23 12:40:00,10.6,-5.9
2022/12/23 12:50:00,10.7,-6.1
2022/12/23 13:00:00,10.8,-6.3
2022/12/23 13:10:00,10.8,-6.3
2022/12/23 13:20:00,11.3,-6.2
2022/12/23 13:30:00,11.4,-6.0
2022/12/23 13:40:00,11.3,-6.5
2022/12/23 13:50:00,11.6,-6.3
2022/12/23 14:00:00,11.8,-6.7
2022/12/23 14:10:00,12.2,-6.3
2022/12/23 14:20:00,13.0,-6.3
2022/12/23 14:30:00,13.4,-6.4
2022/12/23 14:40:00,13.8,-6.4
2022/12/23 14:50:00,14.4,-6.2
2022/12/23 15:00:00,14.8,-6.3
2022/12/23 15:10:00,15.1,-6.5
2022/12/23 15:20:00,15.5,-6.6
2022/12/23 15:30:00,15.7,-6.4
2022/12/23 15:40:00,16.1,-6.6
2022/12/23 15:50:00,16.1,-6.7
2022/12/23 16:00:00,16.7,-6.7
2022/12/23 16:10:00,17.4,-6.6
2022/12/23 16:20:00,18.0,-6.5
2022/12/23 16:30:00,19.0,-6.6
2022/12/23 16:40:00,19.3,-6.7
2022/12/23 16:50:00,19.6,-6.8
2022/12/23 17:00:00,20.0,-6.8
2022/12/23 17:10:00,20.7,-6.4
2022/12/23 17:20:00,21.6,-6.6
2022/12/23 17:30:00,22.0,-6.5
2022/12/23 17:40:00,22.3,-6.6
2022/12/23 17:50:00,22.3,-6.5
2022/12/23 18:00:00,22.2,-6.3
2022/12/23 18:10:00,22.1,-6.2
2022/12/23 18:20:00,22.0,-6.4
2022/12/23 18:30:00,21.9,-6.3
2022/12/23 18:40:00,21.9,-6.3
2022/12/23 18:50:00,21.9,-6.3
2022/12/23 19:00:00,22.6,-6.2
2022/12/23 19:10:00,22.6,-6.0
2022/12/23 19:20:00,22.4,-6.1
2022/12/23 19:30:00,22.4,-6.0
2022/12/23 19:40:00,22.8,-6.0
2022/12/23 19:50:00,23.2,-6.0
2022/12/23 20:00:00,23.5,-5.8
2022/12/23 20:10:00,23.3,-5.8
2022/12/23 20:20:00,23.1,-5.6
2022/12/23 20:30:00,22.9,-5.6
2022/12/23 20:40:00,23.0,-5.5
2022/12/23 20:50:00,22.9,-5.5
2022/12/23 21:00:00,23.0,-5.5
2022/12/23 21:10:00,23.0,-5.4
2022/12/23 21:20:00,22.8,-5.2
2022/12/23 21:30:00,22.7,-5.3
2022/12/23 21:40:00,22.8,-5.3
2022/12/23 21:50:00,22.7,-5.4
2022/12/23 22:00:00,22.7,-5.2
2022/12/23 22:10:00,---,-5.4
2022/12/23 22:20:00, 0.0,-5.2
2022/12/23 22:30:00, 0.0,-5.2
2022/12/23 22:40:00, 0.0,-5.2
2022/12/23 22:50:00, 0.0,-5.2
2022/12/23 23:00:00, 0.0,-5.2
2022/12/23 23:10:00, 0.0,-5.1
2022/12/23 23:20:00, 0.0,-4.9
2022/12/23 23:30:00, 0.0,-5.2
2022/12/23 23:40:00, 0.0,-5.2
2022/12/23 23:50:00, 0.0,-5.2
